Cloud_Cover
0 0 0 0 0 0 0 0 0 0 0 0 11 16 2 0 0 0 0 0 0 0 0 0 0 0 0 0 2 99 100 100 79 61 100 53 28 99 31 3 90 34 0 49 100
0 0 0 0 0 0 0 0 0 0 0 0 0 10 10 6 0 0 0 0 0 0 0 0 0 0 0 0 3 19 100 40 100 49 100 87 55 38 8 26 36 4 77 98 100
0 0 0 0 0 0 0 0 0 0 0 0 0 0 18 0 0 0 0 0 0 0 0 0 0 0 0 0 0 9 8 60 100 100 82 95 95 33 98 68 36 43 83 100 100
0 0 0 0 0 0 0 0 0 0 0 0 6 3 1 0 0 0 0 0 0 0 0 0 0 0 0 0 7 42 48 94 100 64 5 47 100 92 84 86 100 100 7 26 95
0 0 0 0 0 0 0 0 0 0 0 0 18 66 0 0 0 0 0 0 0 0 0 0 0 0 0 4 3 38 21 91 100 100 64 56 100 100 100 94 59 71 33 34 54
0 0 0 0 0 0 0 0 0 0 0 66 86 98 0 0 0 0 0 0 0 0 0 0 0 0 0 0 2 21 5 31 100 98 94 11 89 98 100 53 3 13 2 4 18
0 0 0 0 0 0 0 0 0 0 0 28 96 27 0 0 0 0 0 0 0 0 0 0 0 0 0 0 0 5 97 58 7 33 10 3 100 100 38 94 0 0 0 0 42
0 0 0 0 0 0 0 0 0 0 0 12 86 1 0 0 0 0 0 0 0 0 0 0 0 0 0 0 4 14 13 46 28 18 11 5 43 100 64 100 99 0 0 0 0
0 0 0 0 0 0 0 0 0 0 0 6 18 0 0 0 0 0 0 0 0 0 0 0 0 0 0 0 4 3 1 1 79 4 6 20 58 41 99 100 10 0 0 0 0
0 0 0 0 0 0 0 0 0 26 1 0 0 0 0 0 0 0 0 0 0 0 0 0 0 0 0 0 0 3 5 4 5 95 5 20 5 95 72 100 73 0 0 0 0
0 0 0 0 0 0 0 0 0 0 0 0 0 0 0 0 0 0 0 0 0 0 0 0 0 0 0 0 0 3 37 3 5 46 95 3 74 4 98 100 100 82 94 0 0
0 0 0 0 0 0 0 0 0 0 0 0 0 0 0 0 0 0 0 0 0 0 0 0 0 0 0 0 0 0 1 4 0 48 30 97 67 85 100 100 100 68 89 23 0
0 0 0 0 0 0 0 0 0 0 0 0 0 0 0 0 0 0 0 0 0 0 0 0 0 0 0 0 0 0 0 0 11 70 40 58 14 100 26 99 100 100 51 0 0
0 0 0 0 0 0 0 0 0 0 0 0 0 0 0 0 0 0 0 0 0 0 0 0 0 0 0 0 0 0 0 0 59 42 48 50 25 6 4 36 75 100 71 0 0
0 0 0 0 0 0 0 0 0 0 0 0 0 0 0 0 0 0 0 0 0 0 0 0 0 0 0 0 0 0 0 0 3 86 98 22 85 79 9 6 4 31 0 4 0
0 0 0 0 0 0 0 0 0 0 0 29 0 0 0 0 0 0 0 0 0 0 0 0 0 0 0 0 0 0 0 0 0 3 3 9 100 5 52 3 4 5 0 3 0
0 0 0 0 0 0 0 0 0 0 0 4 5 0 0 0 0 0 0 0 0 0 0 0 0 0 0 0 0 0 0 0 0 0 0 0 60 2 40 8 36 5 29 93 6
0 0 0 0 0 0 0 0 0 0 25 0 58 21 0 0 0 0 0 0 0 0 0 0 0 0 0 0 0 0 0 0 0 0 0 0 0 0 7 98 93 99 50 95 14
0 0 0 0 0 0 0 5 18 14 0 1 28 100 50 100 2 41 0 0 0 0 0 0 0 0 0 0 0 0 0 0 0 0 0 0 0 0 0 1 24 96 100 58 5
0 0 7 0 3 5 5 9 81 23 2 0 4 100 100 100 19 37 5 0 2 0 0 0 2 0 0 0 0 0 0 0 0 0 0 0 0 0 0 0 0 0 99 16 54
0 14 68 28 6 16 58 84 13 5 36 58 83 52 100 100 61 100 70 55 100 99 24 0 0 0 0 0 0 0 0 0 0 0 0 0 1 0 0 0 0 0 0 0 89
99 44 56 91 100 100 99 76 44 64 82 22 66 98 100 100 100 100 100 100 83 44 87 2 0 0 8 0 0 0 0 0 0 0 0 0 17 7 0 0 0 0 5 0 8
15 65 49 100 100 100 100 100 89 5 63 98 98 69 100 100 100 100 100 100 41 10 100 93 0 0 5 46 2 0 0 0 0 0 0 0 0 0 0 0 0 0 5 1 0
15 100 100 86 95 100 100 100 100 98 49 100 100 92 87 100 100 100 100 100 70 73 5 45 0 0 0 0 0 0 0 0 0 0 0 0 0 0 0 0 0 0 4 5 0
87 100 99 100 100 100 100 100 91 53 80 100 94 55 100 100 100 100 100 98 100 45 4 65 0 0 2 4 99 1 0 0 0 0 0 0 0 0 0 0 0 0 0 5 5
98 100 100 100 100 100 100 100 99 100 100 36 72 98 96 100 100 100 100 100 100 64 100 71 3 3 5 5 100 100 1 0 0 0 0 0 45 0 0 0 0 0 0 1 5
100 100 100 100 100 100 100 100 100 94 96 83 100 66 74 100 100 100 100 100 100 100 99 89 81 8 0 5 18 98 10 26 0 0 0 0 27 47 0 0 0 0 0 0 0